Clinton, OK

7:04 AM CDT on July 22, 2017 (GMT -0500)
Clinton Municipal

Weather History for KCLK - July, 2013

Change the Weather History Date:

Monday, July 29, 2013

  Actual Average (KCSM) Record (KCSM)
Temperature  
Mean Temperature 82 °F -  
Max Temperature 93 °F 95 °F 106 °F (2012)
Min Temperature 71 °F 70 °F 59 °F (2005)
Cooling Degree Days 17    
Growing Degree Days 32 (Base 50)    
Moisture  
Dew Point 66 °F    
Average Humidity 62    
Maximum Humidity 83    
Minimum Humidity 38    
Precipitation  
Precipitation 0.00 in - - ()
Sea Level Pressure  
Sea Level Pressure 29.93 in    
Wind  
Wind Speed 16 mph (SSE)    
Max Wind Speed 31 mph    
Max Gust Speed 46 mph    
Visibility 10 miles    
Events      
Averages and records for this station are not official NWS values.
T = Trace of Precipitation, MM = Missing Value Source: NWS Daily Summary

Daily Weather History Graph

Daily Weather History Graph

Search for Another Location

Airport or City:

Trip Planner

Search our weather history database for the weather conditions in past years. The results will help you decide how hot, cold, wet, or windy it might be!

Date:

Astronomy

Jul. 29, 2013 Rise Set
Actual Time 6:41 AM CDT 8:41 PM CDT
Civil Twilight 6:13 AM CDT 9:10 PM CDT
Nautical Twilight 5:39 AM CDT 9:44 PM CDT
Astronomical Twilight 5:02 AM CDT 10:21 PM CDT
Moon 12:22 AM CDT (7/29) 2:07 PM CDT (7/29)
Length of Visible Light 14h 56m
Length of Day
13h 59m
Waning Gibbous, 50% of the Moon is Illuminated
Jul 29
Waning Gibbous
Jul 29
Last Quarter
Aug 6
New
Aug 14
First Quarter
Aug 20
Full

Hourly Weather History & Observations

Time (CDT) Temp. Heat Index Dew Point Humidity Pressure Visibility Wind Dir Wind Speed Gust Speed Precip Events Conditions
12:15 AM 75.2 °F - 60.8 °F 61% 29.97 in 10.0 mi SE 11.5 mph - N/A   Unknown
12:35 AM 73.4 °F - 62.6 °F 69% 29.97 in 10.0 mi SE 15.0 mph - N/A   Unknown
12:55 AM 73.4 °F - 62.6 °F 69% 29.97 in 10.0 mi SE 12.7 mph - N/A   Unknown
1:15 AM 73.4 °F - 62.6 °F 69% 29.96 in 10.0 mi SE 12.7 mph - N/A   Unknown
1:35 AM 73.4 °F - 62.6 °F 69% 29.96 in 10.0 mi SSE 15.0 mph 19.6 mph N/A   Unknown
1:55 AM 73.4 °F - 62.6 °F 69% 29.96 in 10.0 mi SSE 15.0 mph - N/A   Unknown
2:15 AM 73.4 °F - 62.6 °F 69% 29.95 in 10.0 mi SE 13.8 mph - N/A   Unknown
2:55 AM 71.6 °F - 62.6 °F 73% 29.94 in 10.0 mi SE 13.8 mph - N/A   Unknown
3:15 AM 71.6 °F - 62.6 °F 73% 29.94 in 10.0 mi SSE 12.7 mph - N/A   Unknown
3:35 AM 71.6 °F - 62.6 °F 73% 29.95 in 10.0 mi SSE 11.5 mph - N/A   Unknown
3:55 AM 71.6 °F - 64.4 °F 78% 29.95 in 10.0 mi SSE 12.7 mph 17.3 mph N/A   Unknown
4:15 AM 71.6 °F - 64.4 °F 78% 29.95 in 10.0 mi SSE 12.7 mph - N/A   Unknown
4:35 AM 71.6 °F - 64.4 °F 78% 29.95 in 10.0 mi SSE 11.5 mph - N/A   Unknown
4:55 AM 71.6 °F - 64.4 °F 78% 29.94 in 10.0 mi SSE 12.7 mph - N/A   Unknown
5:15 AM 71.6 °F - 64.4 °F 78% 29.94 in 10.0 mi SSE 11.5 mph - N/A   Unknown
5:35 AM 71.6 °F - 64.4 °F 78% 29.94 in 10.0 mi SE 12.7 mph - N/A   Unknown
5:55 AM 71.6 °F - 64.4 °F 78% 29.94 in 10.0 mi SE 13.8 mph - N/A   Unknown
6:15 AM 71.6 °F - 64.4 °F 78% 29.94 in 10.0 mi SE 13.8 mph - N/A   Unknown
6:35 AM 71.6 °F - 64.4 °F 78% 29.94 in 10.0 mi SSE 12.7 mph - N/A   Unknown
6:55 AM 71.6 °F - 64.4 °F 78% 29.94 in 10.0 mi SE 13.8 mph - N/A   Unknown
7:15 AM 71.6 °F - 64.4 °F 78% 29.94 in 10.0 mi SSE 12.7 mph - N/A   Unknown
7:35 AM 71.6 °F - 64.4 °F 78% 29.95 in 10.0 mi SSE 16.1 mph - N/A   Unknown
7:55 AM 71.6 °F - 66.2 °F 83% 29.95 in 10.0 mi SSE 15.0 mph - N/A   Unknown
8:15 AM 73.4 °F - 66.2 °F 78% 29.95 in 10.0 mi SSE 15.0 mph - N/A   Unknown
8:35 AM 75.2 °F - 66.2 °F 73% 29.95 in 10.0 mi SSE 17.3 mph - N/A   Unknown
8:55 AM 73.4 °F - 66.2 °F 78% 29.96 in 10.0 mi SSE 15.0 mph - N/A   Unknown
9:15 AM 77.0 °F - 68.0 °F 74% 29.96 in 10.0 mi SSE 13.8 mph - N/A   Unknown
9:35 AM 78.8 °F - 68.0 °F 69% 29.96 in 10.0 mi SSE 15.0 mph 21.9 mph N/A   Unknown
9:55 AM 78.8 °F - 68.0 °F 69% 29.96 in 10.0 mi South 15.0 mph - N/A   Unknown
10:15 AM 80.6 °F 82.7 °F 66.2 °F 61% 29.96 in 10.0 mi South 20.7 mph 26.5 mph N/A   Unknown
10:35 AM 80.6 °F 82.7 °F 66.2 °F 61% 29.96 in 5.0 mi South 19.6 mph 25.3 mph N/A   Haze
10:55 AM 80.6 °F 83.2 °F 68.0 °F 65% 29.96 in 10.0 mi South 18.4 mph - N/A   Unknown
11:15 AM 80.6 °F 83.2 °F 68.0 °F 65% 29.96 in 10.0 mi South 16.1 mph - N/A   Unknown
11:35 AM 82.4 °F 85.4 °F 68.0 °F 62% 29.96 in 10.0 mi South 16.1 mph - N/A   Unknown
11:55 AM 82.4 °F 85.4 °F 68.0 °F 62% 29.96 in 10.0 mi South 19.6 mph 24.2 mph N/A   Unknown
12:15 PM 82.4 °F 85.4 °F 68.0 °F 62% 29.96 in 10.0 mi South 16.1 mph - N/A   Unknown
12:35 PM 84.2 °F 87.3 °F 68.0 °F 58% 29.96 in 10.0 mi South 17.3 mph 20.7 mph N/A   Unknown
12:55 PM 84.2 °F 87.3 °F 68.0 °F 58% 29.96 in 10.0 mi South 17.3 mph 21.9 mph N/A   Unknown
1:15 PM 82.4 °F 85.4 °F 68.0 °F 62% 29.95 in 10.0 mi South 18.4 mph 24.2 mph N/A   Unknown
1:35 PM 84.2 °F 87.3 °F 68.0 °F 58% 29.94 in 10.0 mi SSE 18.4 mph 24.2 mph N/A   Unknown
1:55 PM 87.8 °F 91.4 °F 68.0 °F 52% 29.93 in 10.0 mi South 21.9 mph - N/A   Unknown
2:15 PM 89.6 °F 93.4 °F 68.0 °F 49% 29.92 in 10.0 mi South 17.3 mph 28.8 mph N/A   Unknown
2:35 PM 89.6 °F 93.4 °F 68.0 °F 49% 29.92 in 10.0 mi South 20.7 mph 29.9 mph N/A   Unknown
2:55 PM 89.6 °F 93.4 °F 68.0 °F 49% 29.91 in 10.0 mi South 25.3 mph 29.9 mph N/A   Unknown
3:15 PM 91.4 °F 95.4 °F 68.0 °F 46% 29.91 in 10.0 mi South 21.9 mph 25.3 mph N/A   Unknown
3:35 PM 91.4 °F 95.4 °F 68.0 °F 46% 29.91 in 10.0 mi South 20.7 mph 27.6 mph N/A   Unknown
4:15 PM 91.4 °F 95.4 °F 68.0 °F 46% 29.89 in 10.0 mi SSE 23.0 mph 29.9 mph N/A   Unknown
4:35 PM 91.4 °F 95.4 °F 68.0 °F 46% 29.89 in 10.0 mi SSE 25.3 mph - N/A   Unknown
4:55 PM 91.4 °F 95.4 °F 68.0 °F 46% 29.86 in 10.0 mi South 23.0 mph 31.1 mph N/A   Unknown
5:15 PM 91.4 °F 94.0 °F 66.2 °F 43% 29.86 in 10.0 mi South 25.3 mph 32.2 mph N/A   Unknown
5:35 PM 91.4 °F 94.0 °F 66.2 °F 43% 29.85 in 10.0 mi South 26.5 mph 33.4 mph N/A   Unknown
5:55 PM 93.2 °F 94.9 °F 64.4 °F 38% 29.83 in 10.0 mi South 23.0 mph 33.4 mph N/A   Unknown
6:15 PM 91.4 °F 93.2 °F 64.4 °F 41% 29.85 in 10.0 mi South 20.7 mph 27.6 mph N/A   Unknown
6:35 PM 91.4 °F 93.2 °F 64.4 °F 41% 29.86 in 10.0 mi South 24.2 mph 31.1 mph N/A   Unknown
6:55 PM 91.4 °F 93.2 °F 64.4 °F 41% 29.87 in 10.0 mi South 24.2 mph 29.9 mph N/A   Unknown
7:15 PM 89.6 °F 91.1 °F 64.4 °F 43% 29.85 in 10.0 mi South 23.0 mph 33.4 mph N/A   Unknown
7:35 PM 89.6 °F 91.1 °F 64.4 °F 43% 29.85 in 10.0 mi SSE 23.0 mph 28.8 mph N/A   Unknown
7:55 PM 87.8 °F 88.5 °F 62.6 °F 43% 29.86 in 10.0 mi SSE 20.7 mph 27.6 mph N/A   Unknown
8:15 PM 87.8 °F 88.5 °F 62.6 °F 43% 29.88 in 10.0 mi SSE 20.7 mph - N/A   Unknown
8:35 PM 86.0 °F 87.3 °F 64.4 °F 48% 29.88 in 10.0 mi SSE 19.6 mph 24.2 mph N/A   Unknown
8:55 PM 86.0 °F 87.3 °F 64.4 °F 48% 29.86 in 10.0 mi SSE 19.6 mph 25.3 mph N/A   Unknown
9:15 PM 84.2 °F 87.3 °F 68.0 °F 58% 29.88 in 10.0 mi SSE 19.6 mph 26.5 mph N/A   Unknown
9:35 PM 82.4 °F 86.3 °F 69.8 °F 66% 29.88 in 10.0 mi SSE 21.9 mph 26.5 mph N/A   Unknown
9:55 PM 82.4 °F 86.3 °F 69.8 °F 66% 29.90 in 10.0 mi SSE 18.4 mph 24.2 mph N/A   Unknown
10:15 PM 82.4 °F 86.3 °F 69.8 °F 66% 29.91 in 10.0 mi SSE 17.3 mph 25.3 mph N/A   Unknown
10:35 PM 82.4 °F 85.4 °F 68.0 °F 62% 29.91 in 10.0 mi SSE 18.4 mph 23.0 mph N/A   Unknown
10:55 PM 82.4 °F 85.4 °F 68.0 °F 62% 29.94 in 10.0 mi SSE 15.0 mph 21.9 mph N/A   Unknown
11:15 PM 82.4 °F 85.4 °F 68.0 °F 62% 29.95 in 10.0 mi SE 12.7 mph 17.3 mph N/A   Unknown
11:35 PM 71.6 °F - 62.6 °F 73% 30.00 in 10.0 mi North 31.1 mph 46.0 mph N/A   Unknown
11:55 PM 71.6 °F - 60.8 °F 69% 30.00 in 10.0 mi NNE 25.3 mph 42.6 mph N/A   Unknown